Location: B?lite?ti
(46.2833°N, 22.7333°E)
Time: 04:50:06
(UTC+00:00)

Cosmos 1602 Rocket - Pass Details

Date: 24 January 2021
Orbit: 604 x 632 km, 82.5° (Epoch: 26 February)

Event Time Altitude Azimuth Distance (km) Brightness Sun altitude
Rises 16:19:10 0° 162° (SSE) 2,854 7.0 -10.0°
Reaches altitude 10° 16:21:32 10° 152° (SSE) 1,959 6.0 -10.3°
Maximum altitude 16:25:21 31° 90° (E) 1,074 4.3 -11.0°
Drops below altitude 10° 16:29:15 10° 28° (NNE) 1,987 5.8 -11.6°
Enters shadow 16:31:17 - 19° (NNE) 2,760 6.6 -12.0°
